Location: Coed Ely
(51.5661°N, 3.4150°W)
Time: 19:26:27
(UTC+00:00)

USA 229 - Pass Details

Date: 28 January 2021
Orbit: 964 x 1248 km, 63.4° (Epoch: 26 February)

Event Time Altitude Azimuth Distance (km) Brightness Sun altitude
Rises 17:21:09 0° 313° (NW) 3,907 7.0 -4.3°
Reaches altitude 10° 17:23:46 10° 316° (NW) 2,988 6.3 -4.7°
Maximum altitude 17:30:58 74° 41° (NE) 1,219 3.9 -5.7°
Drops below altitude 10° 17:38:35 10° 127° (SE) 3,165 5.9 -6.8°
Sets 17:41:25 0° 129° (SE) 4,151 6.5 -7.2°
